Fayetteville, Georgia, United States (30214)
Lat: 33.45N, Lon: 84.45W
Wx Zone: GAZ054
Local Info
Past Weather Observations for Today

NOTE: This archive is for the closest National Weather Service station to Fayetteville. Information may differ from the station used for current weather conditions.

Time Weather Temperature Dewpoint Humidity Pressure Winds Precip Visibility
17:53
Clear
73°F / 23°C 43°F / 6°C 33% 30.15 in
(1021 mb)
E 4.6 mph
(E 7 kph)
- 10SM
16:53
Clear
75°F / 24°C 43°F / 6°C 31% 30.15 in
(1021 mb)
E 6.9 mph
(E 11 kph)
- 10SM
15:53
Clear
75°F / 24°C 45°F / 7°C 34% 30.15 in
(1021 mb)
NNE 9.2 mph
(NNE 15 kph)
- 10SM
14:53
Clear
73°F / 23°C 43°F / 6°C 33% 30.15 in
(1021 mb)
NE 9.2 mph
(NE 15 kph)
- 10SM
13:53
Clear
72°F / 22°C 43°F / 6°C 36% 30.18 in
(1022 mb)
N 8.1 mph
(N 13 kph)
- 10SM
12:53
Clear
70°F / 21°C 43°F / 6°C 38% 30.21 in
(1023 mb)
ENE 8.1 mph
(ENE 13 kph)
- 10SM
11:53
Clear
68°F / 20°C 41°F / 5°C 38% 30.21 in
(1023 mb)
Calm - 10SM
10:53
Clear
64°F / 18°C 39°F / 4°C 40% 30.24 in
(1024 mb)
Variable 5.8 mph
(Variable 9 kph)
- 10SM
09:53
Clear
63°F / 17°C 41°F / 5°C 45% 30.24 in
(1024 mb)
NE 10.4 mph
(NE 17 kph)
- 10SM
08:53
Overcast
59°F / 15°C 43°F / 6°C 55% 30.24 in
(1024 mb)
ENE 9.2 mph
(ENE 15 kph)
- 10SM
07:53
Overcast
55°F / 13°C 45°F / 7°C 67% 30.24 in
(1024 mb)
NNE 5.8 mph
(NNE 9 kph)
- 10SM
06:53
Overcast
52°F / 11°C 45°F / 7°C 77% 30.21 in
(1023 mb)
Calm - 10SM
05:53
Overcast
54°F / 12°C 43°F / 6°C 67% 30.21 in
(1023 mb)
Calm - 10SM
04:53
Overcast
54°F / 12°C 45°F / 7°C 72% 30.15 in
(1021 mb)
NE 9.2 mph
(NE 15 kph)
- 10SM
03:53
Overcast
54°F / 12°C 45°F / 7°C 72% 30.15 in
(1021 mb)
NE 6.9 mph
(NE 11 kph)
- 10SM
03:26
Overcast
54°F / 12°C 45°F / 7°C 72% 30.15 in
(1021 mb)
Variable 5.8 mph
(Variable 9 kph)
- 10SM
03:03
Overcast
54°F / 12°C 45°F / 7°C 72% 30.15 in
(1021 mb)
Variable 4.6 mph
(Variable 7 kph)
- 10SM
02:53
Overcast
54°F / 12°C 45°F / 7°C 72% 30.15 in
(1021 mb)
Variable 3.5 mph
(Variable 6 kph)
- 10SM
01:53
Overcast
54°F / 12°C 45°F / 7°C 72% 30.15 in
(1021 mb)
E 9.2 mph
(E 15 kph)
- 10SM
00:53
Overcast
54°F / 12°C 46°F / 8°C 77% 30.18 in
(1022 mb)
ENE 9.2 mph
(ENE 15 kph)
- 10SM
Time Weather Temperature Dewpoint Humidity Pressure Winds Precip Visibility


Weather for websites

WeatherForYou.com, LLC is not responsible for any damages or problems caused by this service. Current weather conditions are obtained from the closest station including government and personal stations which may have varying degrees of accuracy. Weather forecasts are derived from the NOAA NDFD. Like all things, this site belongs to Jesus Christ... He just trusts me to maintain it. If you have any questions or comments email webmaster@weatherforyou.com

Copyright © 2014, WeatherForYou.com LLC. All rights reserved.